Location: Linz
(48.3300°N, 14.3000°E)
Time: 06:49:43
(UTC+01:00)

Vanguard 2 Rocket - All Passes

Search period start: 19 January 2018 00:00
Search period end: 29 January 2018 00:00
Orbit: 556 x 3326 km, 32.9° (Epoch: 18 January)

Date Brightness Start Highest point End Pass type
(mag) Time Alt. Az. Time Alt. Az. Time Alt. Az.
19 Jan - 07:20:09 10° S 07:24:32 14° SSE 07:28:06 10° SE daylight
19 Jan - 09:32:24 10° SW 09:37:22 18° S 09:41:05 10° SE daylight
19 Jan - 11:47:24 10° SW 11:49:21 12° SSW 11:51:05 10° S daylight
20 Jan - 06:21:09 10° S 06:24:57 12° SSE 06:28:12 10° SE visible
20 Jan - 08:32:01 10° SW 08:38:11 19° S 08:42:39 10° SE daylight
20 Jan - 10:46:35 10° SW 10:50:31 17° SSW 10:53:39 10° SSE daylight
21 Jan - 07:31:37 10° SSW 07:38:48 20° S 07:43:58 10° SE daylight
21 Jan - 09:45:54 10° SW 09:51:34 21° S 09:55:40 10° SE daylight
22 Jan - 06:31:23 10° SSW 06:39:11 19° SSE 06:44:55 10° ESE visible
22 Jan - 08:45:06 10° SW 08:52:26 24° S 08:57:26 10° SE daylight
22 Jan - 11:00:50 10° SW 11:04:34 15° SSW 11:07:34 10° SSE daylight
23 Jan - 05:31:33 10° S 05:39:21 17° SSE 05:45:21 10° ESE visible
23 Jan - 07:44:13 10° SW 07:53:02 25° S 07:58:56 10° ESE daylight
23 Jan - 09:59:45 10° WSW 10:05:41 21° SSW 10:09:56 10° SSE daylight
24 Jan - 04:32:37 10° S 04:39:20 14° SSE 04:44:54 10° SE visible
24 Jan - 06:43:21 10° SW 06:53:24 25° S 07:00:11 10° ESE visible
24 Jan - 08:58:38 10° WSW 09:06:35 26° S 09:11:52 10° SE daylight
24 Jan - 11:15:38 10° SW 11:18:28 13° SSW 11:20:52 10° S daylight
25 Jan - 03:36:09 10° SSE 03:39:11 11° SSE 03:42:00 10° SE visible
25 Jan - 05:42:41 10° SSW 05:53:30 24° SSE 06:01:05 10° ESE visible
25 Jan - 07:57:23 10° SW 08:07:14 29° S 08:13:33 10° SE daylight
25 Jan - 10:13:54 10° WSW 10:19:41 20° SSW 10:23:51 10° SSE daylight
26 Jan - 04:42:29 10° SSW 04:53:24 21° SSE 05:01:30 10° ESE visible
26 Jan - 06:56:05 10° SW 07:07:34 31° S 07:14:57 10° ESE visible
26 Jan - 09:12:27 10° WSW 09:20:38 26° SSW 09:26:04 10° SE daylight
27 Jan - 03:43:04 10° S 03:53:06 18° SSE 04:01:09 10° ESE visible
27 Jan - 05:54:53 10° SW 06:07:37 30° SSE 06:16:04 10° ESE visible
27 Jan - 08:10:54 10° WSW 08:21:19 31° S 08:27:54 10° SE daylight
27 Jan - 10:28:26 10° WSW 10:33:30 17° SSW 10:37:20 10° S daylight
28 Jan - 02:45:09 10° S 02:52:44 14° SE 02:59:24 10° ESE visible
28 Jan - 04:53:59 10° SSW 05:07:25 28° SSE 05:16:48 10° ESE visible
28 Jan - 07:09:16 10° WSW 07:21:40 34° S 07:29:26 10° ESE daylight
28 Jan - 09:26:31 10° WSW 09:34:33 24° SSW 09:39:59 10° SSE daylight
